Location: Gebenbach
(49.5378°N, 11.8735°E)
Time: 05:24:06
(UTC+00:00)

Cosmos 2058 Rocket - Pass Details

Date: 29 October 2020
Orbit: 610 x 639 km, 82.5° (Epoch: 25 November)

Event Time Altitude Azimuth Distance (km) Brightness Sun altitude
Rises 16:40:32 0° 171° (S) 2,920 6.6 -7.9°
Reaches altitude 10° 16:42:49 10° 165° (SSE) 2,020 5.7 -8.3°
Maximum altitude 16:47:06 45° 93° (E) 874 3.4 -9.0°
Drops below altitude 10° 16:51:25 10° 21° (NNE) 2,043 5.4 -9.7°
Sets 16:53:44 0° 15° (NNE) 2,958 6.3 -10.0°
